Flight Track Log - Related Links

Times and Time Zones

All times are in EDT time to prevent confusion due to time zone crossing. See the FDX1670 flight status page for this flight to view local times or setup timezone preferences in your user account.

Time Position Orientation Groundspeed Altitude Reporting Facility
EDT Latitude Longitude Course Direction KTS MPH feet Rate Location/Type
Fri 12:00:28 AM 39.8133 -82.9289 282° West 158 182 1,000  Level Indianapolis Center
Fri 12:00:54 AM 39.7990 -82.9490 225° Southwest 171 197 2,100 2,286 Climbing FlightAware ADS-B
Fri 12:01:10 AM 39.7890 -82.9620 225° Southwest 189 217 2,600 732 Climbing FlightAware ADS-B
Fri 12:01:35 AM 39.7760 -82.9790 225° Southwest 189 217 2,600 2,649 Level FlightAware ADS-B
Fri 12:04:00 AM 39.8456 -83.1990 288° West  Level FlightAware Approximate
Fri 12:05:00 AM 39.8601 -83.2938 282° West  Level FlightAware Approximate
Fri 12:06:18 AM 39.8880 -83.5420 282° West 393 452 16,200  Level FlightAware ADS-B
Fri 12:06:50 AM 39.9030 -83.6170 285° West 406 467 17,400 2,328 Climbing FlightAware ADS-B
Fri 12:07:25 AM 39.9190 -83.7010 284° West 414 476 18,800 2,143 Climbing FlightAware ADS-B
Fri 12:08:00 AM 39.9360 -83.7870 284° West 425 489 19,900 2,087 Climbing FlightAware ADS-B
Fri 12:08:34 AM 39.9510 -83.8670 284° West 428 493 21,200 1,800 Climbing FlightAware ADS-B
Fri 12:09:10 AM 39.9610 -83.9620 278° West 431 496 22,000 667 Climbing FlightAware ADS-B
Fri 12:09:46 AM 39.9700 -84.0550 277° West 435 501 22,000  Level FlightAware ADS-B
Fri 12:10:40 AM 39.9810 -84.1860 276° West 434 499 22,000  Level FlightAware ADS-B
Fri 12:11:16 AM 39.9870 -84.2660 276° West 434 499 22,000  Level FlightAware ADS-B
Fri 12:11:52 AM 39.9930 -84.3460 276° West 434 499 22,000  Level FlightAware ADS-B
Fri 12:12:28 AM 40.0000 -84.4250 277° West 434 499 22,000  Level FlightAware ADS-B
Fri 12:13:08 AM 40.0120 -84.5690 276° West 434 499 22,000  Level FlightAware ADS-B
Fri 12:13:44 AM 40.0170 -84.6490 275° West 434 499 22,000  Level FlightAware ADS-B
Fri 12:14:18 AM 40.0280 -84.7610 277° West 433 498 22,000  Level FlightAware ADS-B
Fri 12:14:54 AM 40.0350 -84.8550 276° West 432 497 22,000  Level FlightAware ADS-B
Fri 12:15:30 AM 40.0420 -84.9480 276° West 432 497 22,000  Level FlightAware ADS-B
Fri 12:16:02 AM 40.0490 -85.0310 276° West 432 497 22,000 -1,059 Level FlightAware ADS-B
Fri 12:16:55 AM 40.0590 -85.1630 276° West 412 474 20,500 -2,259 Descending FlightAware ADS-B
Fri 12:17:27 AM 40.0650 -85.2460 275° West 405 466 18,800 -3,176 Descending FlightAware ADS-B
Fri 12:18:03 AM 40.0720 -85.3310 276° West 404 465 16,900 -3,043 Descending FlightAware ADS-B
Fri 12:18:36 AM 40.0780 -85.4110 276° West 395 455 15,300 -2,870 Descending FlightAware ADS-B
Fri 12:19:12 AM 40.0840 -85.4970 275° West 384 442 13,600 -2,833 Descending FlightAware ADS-B
Fri 12:19:48 AM 40.0900 -85.5770 276° West 376 433 11,900 -1,976 Descending FlightAware ADS-B
Fri 12:20:37 AM 40.0860 -85.6850 267° West 364 419 10,800 -776 Descending FlightAware ADS-B
Fri 12:21:13 AM 40.0510 -85.7520 236° Southwest 374 430 10,800  Level FlightAware ADS-B
Fri 12:21:49 AM 40.0060 -85.8080 224° Southwest 371 427 10,800  Level FlightAware ADS-B
Fri 12:22:20 AM 39.9680 -85.8580 225° Southwest 371 427 10,800  Level FlightAware ADS-B
Fri 12:22:57 AM 39.9230 -85.9180 226° Southwest 371 427 10,800  Level FlightAware ADS-B
Fri 12:23:33 AM 39.8800 -85.9730 224° Southwest 372 428 10,800  Level FlightAware ADS-B
Fri 12:24:08 AM 39.8400 -86.0250 225° Southwest 325 374 10,800  Level FlightAware ADS-B
Fri 12:24:40 AM 39.8090 -86.0670 226° Southwest 288 331 10,800 -429 Level FlightAware ADS-B
Fri 12:25:18 AM 39.7750 -86.1110 225° Southwest 269 310 10,300 -1,034 Descending FlightAware ADS-B
Fri 12:25:38 AM 39.7560 -86.1340 223° Southwest 267 307 9,800 -1,500 Descending FlightAware ADS-B
Fri 12:25:58 AM 39.7370 -86.1550 220° Southwest 266 306 9,300 -2,045 Descending FlightAware ADS-B
Fri 12:26:22 AM 39.7160 -86.1780 220° Southwest 266 306 8,300 -2,651 Descending FlightAware ADS-B
Fri 12:26:41 AM 39.6960 -86.2000 220° Southwest 275 316 7,400 -2,634 Descending FlightAware ADS-B
Fri 12:27:03 AM 39.6750 -86.2230 220° Southwest 277 319 6,500 -2,714 Descending FlightAware ADS-B
Fri 12:27:23 AM 39.6560 -86.2450 222° Southwest 277 319 5,500 -2,833 Descending FlightAware ADS-B
Fri 12:27:39 AM 39.6400 -86.2640 222° Southwest 276 318 4,800 -2,333 Descending FlightAware ADS-B
Fri 12:27:59 AM 39.6220 -86.2860 223° Southwest 263 303 4,100 -1,500 Descending FlightAware ADS-B
Fri 12:28:19 AM 39.6050 -86.3050 221° Southwest 241 277 3,800 -1,050 Descending FlightAware ADS-B
Fri 12:28:39 AM 39.5890 -86.3240 222° Southwest 225 259 3,400 -1,091 Descending FlightAware ADS-B
Fri 12:29:03 AM 39.5730 -86.3440 224° Southwest 207 238 3,000 -818 Descending FlightAware ADS-B
Fri 12:29:23 AM 39.5590 -86.3610 223° Southwest 196 226 2,800 -375 Descending FlightAware ADS-B
Fri 12:29:35 AM 39.5520 -86.3730 233° Southwest 205 236 2,800  Level FlightAware ADS-B
Fri 12:29:47 AM 39.5500 -86.3880 260° West 206 237 2,800  Level FlightAware ADS-B
Fri 12:30:12 AM 39.5480 -86.4150 265° West 206 237 2,800  Level FlightAware ADS-B
Fri 12:30:35 AM 39.5760 -86.4230 348° North 177 204 2,800  Level FlightAware ADS-B
Fri 12:30:55 AM 39.5920 -86.4190 11° North 177 204 2,800  Level FlightAware ADS-B
Fri 12:31:23 AM 39.6140 -86.4110 16° North 175 201 2,800  Level FlightAware ADS-B
Fri 12:31:27 AM 39.6180 -86.4080 30° Northeast 173 199 2,800 -462 Level FlightAware ADS-B
Fri 12:31:36 AM 39.6230 -86.4030 38° Northeast 174 200 2,700 -800 Descending FlightAware ADS-B
Fri 12:31:57 AM 39.6350 -86.3870 46° Northeast 164 189 2,400 -857 Descending FlightAware ADS-B
Fri 12:32:25 AM 39.6480 -86.3710 43° Northeast 140 161 2,000 -808 Descending FlightAware ADS-B
Fri 12:32:49 AM 39.6590 -86.3570 44° Northeast 120 138 1,700 -682 Descending FlightAware ADS-B
Fri 12:33:09 AM 39.6670 -86.3470 44° Northeast 117 135 1,500 -600 Descending FlightAware ADS-B
Fri 12:33:29 AM 39.6750 -86.3370 44° Northeast 121 139 1,300 -615 Descending FlightAware ADS-B
Fri 12:33:48 AM 39.6820 -86.3270 48° Northeast 121 139 1,100 -600 Descending FlightAware ADS-B
Fri 12:34:09 AM 39.6910 -86.3160 43° Northeast 118 136 900 -310 Descending FlightAware ADS-B
Fri 12:34:46 AM 39.7030 -86.3010 44° Northeast 120 138 800 -162 Descending FlightAware ADS-B

Login

Don't have an account? Register now (free) for customized features, flight alerts, and more!